Location: Unspecified
(0.0000°N, 0.0000°E)
Time: 10:15:24
(UTC+00:00)

COSMOS 2251 DEB - Pass Details

Date: 20 February 2026
Orbit: 744 x 1394 km, 73.9° (Epoch: 9 March)

Event Time Altitude Azimuth Distance (km) Brightness Sun altitude
Exits shadow 04:18:54 28° 221° (SW) 2,299 ? -28.1°
Drops below altitude 10° 04:23:28 10° 194° (SSW) 3,453 ? -27.0°
Sets 04:26:44 0° 186° (S) 4,450 ? -26.2°
